Location: Grieser Field
(39.7333°N, 81.7975°W)
Time: 10:53:48
(UTC-04:00)

Meteor 2-1 Rocket - Visible Passes

Search period start: 20 April 2018 00:00
Search period end: 30 April 2018 00:00
Orbit: 829 x 907 km, 81.3° (Epoch: 19 April)

Date Brightness Start Highest point End Pass type
(mag) Time Alt. Az. Time Alt. Az. Time Alt. Az.
20 Apr 6.3 06:09:20 10° N 06:14:18 33° ENE 06:19:16 10° SE visible
20 Apr 7.0 21:04:51 10° WSW 21:09:09 22° WNW 21:13:27 10° NNW visible
21 Apr 6.2 06:02:37 10° N 06:07:37 34° ENE 06:12:36 10° SE visible
21 Apr 7.1 20:58:14 10° WSW 21:02:29 21° WNW 21:06:43 10° NNW visible
22 Apr 6.1 05:55:55 10° N 06:00:56 35° ENE 06:05:57 10° SE visible
22 Apr 7.2 20:51:37 10° WSW 20:55:48 21° WNW 20:59:58 10° NNW visible
23 Apr 6.0 05:49:11 10° N 05:54:14 35° ENE 05:59:18 10° SE visible
23 Apr 7.3 20:45:01 10° WSW 20:49:07 20° WNW 20:53:14 10° NNW visible
24 Apr 6.0 05:42:28 10° N 05:47:34 36° ENE 05:52:38 10° SE visible
24 Apr 7.3 20:38:24 10° WSW 20:42:27 20° WNW 20:46:29 10° NNW visible
25 Apr 5.9 05:35:46 10° N 05:40:53 37° ENE 05:46:00 10° SE visible
26 Apr 5.8 05:29:03 10° N 05:34:11 38° ENE 05:39:21 10° SE visible
27 Apr 5.8 05:22:20 10° N 05:27:30 39° ENE 05:32:41 10° SE visible
28 Apr 5.7 05:15:37 10° N 05:20:49 40° ENE 05:26:02 10° SE visible
29 Apr 5.6 05:08:55 10° N 05:14:07 40° ENE 05:19:23 10° SE visible
